www.pogodaiklimat.ru

Погода и климат >> Архив погоды >> Россия >> Ханты-Мансийский АО >> Березово


АРХИВ ПОГОДЫ в Березово

Время (UTC), дата Ветер
(напр.,м/с)
 
Видим.   Явления Облачность Т
(С)
Тd
(С)
f
(%)
Тe
(С)
Тes
(С)
Комфортность P
(гПа)
Po
(гПа)
Тmin
(С)
Tmax
(С)
R
(мм)
R24
(мм)
S
(см)
00 12.06 С 4 50 км {ливн. осадки} 10/10 210 м
[St]
+9.5 +8.9 96 +6 +6 1000.8 996.9
03 12.06 СВ 5 50 км 10/10 240 м
[Sc]
+9.7 +8.3 91 +6 +6 1000.3 996.4 +8.4 0.0
06 12.06 СВ 5 50 км 10/10 500 м
[Sc]
+9.6 +6.8 83 +6 +6 999.4 995.5
09 12.06 С 5 10 км слаб. ливневой дождь 10/8 240 м
[Cb cap Ac und]
+7.9 +7.3 96 +4 +4 999.1 995.2
12 12.06 С 6
{10}
10 км слаб. ливневой дождь 10/8 270 м
[Cb cap Ac und]
+8.0 +6.9 93 +4 +4 999.5 995.6
15 12.06 С 5 50 км {ливн. осадки} 9/0
[Ac und]
+8.6 +4.3 74 +5 +5 1000.3 996.4 +9.8 5
18 12.06 С 6
{10}
50 км {ливн. осадки} 3/0
[Ac trans]
+5.8 -0.8 63 +1 +1 1000.9 996.9
21 12.06 СЗ 3 20 км 3/0
[Ac trans Ci fib]
+1.7 -1.1 82 -3 -3 1001.0 996.9
00 13.06 СЗ 5 50 км 8/0
[Ac trans Ci fib]
+3.3 +0.4 81 -2 -2 1000.7 996.7
03 13.06 СЗ 8-11
{11}
50 км 9/4 870 м
[Sc Ac und]
+5.0 -1.2 64 -1 -0 1000.6 996.6 +1.4
06 13.06 СЗ 9-12
{13}
50 км в посл. час ливневой дождь 10/10 930 м
[Cb cap]
+5.4 -1.7 60 -0 -0 1000.4 996.4
09 13.06 З 9-12
{14}
50 км в посл. час ливневой снег 9/6 540 м
[Cb cap Ac und]
+4.3 +0.1 74 -2 -2 1000.5 996.5
12 13.06 С 9-12
{14}
50 км {ливн. осадки} 8/8 500 м
[Cb cap]
+7.0 +1.3 67 +2 +2 1001.2 997.3
15 13.06 С 7-10
{12}
50 км 9/3 600 м
[Cb cap Ac und]
+6.2 -1.9 56 +2 +2 1001.3 997.3 +7.8 0.7
18 13.06 СЗ 9-10
{11}
20 км 9/0
[Ac und]
+3.2 -0.3 78 -3 -3 1002.0 998.0
21 13.06 штиль 0
{10}
50 км ?/? +1.4 0.0 90 0 0 1001.5 997.4
00 14.06 СЗ 8
{10}
20 км 10/0
[Ac und]
+1.8 -0.1 87 -5 -5 1001.0 996.9
03 14.06 СЗ 8
{10}
50 км в посл. час ливневой снег 9/4 900 м
[Cb cap Ac und]
+2.3 -1.0 79 -4 -4 1001.4 997.4 +1.4 0.0
06 14.06 СЗ 9-12
{13}
50 км в посл. час ливневой дождь 10/3 900 м
[Cb cap Ac und]
+4.8 -2.5 59 -1 -1 1001.8 997.8
09 14.06 СЗ 7-10
{12}
50 км 10/0
[Ac trans Ci fib]
+7.9 -1.6 51 +4 +6 1002.5 998.6
12 14.06 СЗ 6
{12}
50 км 9/0
[Ac und]
+8.0 -1.1 53 +4 +5 1004.1 1000.2
15 14.06 С 4 50 км 10/0
[Ac trans Ci fib]
+9.3 -1.3 47 +7 +7 1004.5 1000.6 +10.0 0.0
18 14.06 штиль 0 50 км 10/0
[Ac trans Ci fib]
+3.8 +1.8 87 +3 +3 1005.1 1001.1
21 14.06 штиль 0 20 км 10/0
[Ac trans Ci fib]
-0.6 -1.2 96 -2 -2 1005.2 1001.1
00 15.06 З 2 50 км 10/0
[Ac trans Ci fib]
+2.8 +1.2 89 -0 0 1004.7 1000.7
03 15.06 З 3 50 км 10/0
[Ac trans Ci fib]
+7.8 +1.1 63 +5 +8 1003.9 1000.0 -1.5
06 15.06 ЮЗ 3 50 км 10/3 1000 м
[Cb cap Ac trans Ci fib]
+11.0 +0.9 50 +10 +13 1001.9 998.0
09 15.06 ЮЗ 4
{10}
50 км в посл. час ливневой дождь 10/5 1000 м
[Cb cap Ac und]
+10.9 +2.8 57 +9 +10 1001.6 997.7
12 15.06 ЮЗ 5
{10}
50 км {ливн. осадки} 10/5 1230 м
[Cb cap Ac und]
+10.6 +4.1 64 +8 +8 1001.2 997.3
15 15.06 Ю 2 50 км {ливн. осадки} 8/3 900 м
[Cb cap Ac trans]
+9.3 +6.0 80 +8 +8 1001.2 997.3 +12.3 0.5
18 15.06 С 2 50 км {ливн. осадки} 9/1 600 м
[Cb cap Ac und]
+6.1 +5.4 95 +4 +4 1001.0 997.0
21 15.06 СЗ 2 20 км 9/0
[Ac trans]
+4.2 +3.7 97 +1 +1 1000.6 996.6
00 16.06 С 2 50 км 9/0
[Ac und]
+4.9 +4.2 95 +2 +2 1000.4 996.4
03 16.06 СВ 3 50 км 3/1 600 м
[Cu med, cong Ci fib]
+8.5 +4.4 75 +6 +10 1000.3 996.4 +1.8 2
06 16.06 СВ 3 50 км 10/8 1200 м
[Cb cap Ci fib]
+10.6 +1.9 55 +9 +10 999.3 995.4
09 16.06 СВ 3 50 км 9/1 1000 м
[Cb cap Ac und]
+10.3 +1.8 56 +9 +12 999.2 995.3
12 16.06 СВ 3 50 км в посл. час ливневой дождь 9/3 900 м
[Cb cap Ac und]
+9.3 +4.6 72 +7 +8 1000.3 996.4
15 16.06 ЮВ 2 50 км 9/1 600 м
[Cb cap Ac und]
+9.8 +4.2 68 +8 +9 1000.4 996.5 +12.3 0.7
18 16.06 ЮЗ 1 50 км 6/0
[Ac trans]
+5.1 +3.6 90 +4 +4 1000.3 996.3
21 16.06 ЮЗ 2 20 км 4/0
[Ac trans]
+3.6 +2.3 91 +1 +1 999.2 995.2
00 17.06 ЮЗ 2 50 км 9/0
[Ac und]
+5.7 +3.1 83 +3 +4 998.5 994.5
03 17.06 ЮЗ 2 10 км слаб. ливневой дождь 10/10 900 м
[Cb cap]
+9.8 +5.2 73 +8 +8 997.7 993.8 +3.0 0.0
06 17.06 ЮЗ 3 50 км {ливн. осадки} 10/5 1020 м
[Cb cap Ci fib]
+10.9 +6.4 74 +9 +13 997.7 993.8
09 17.06 СВ 3 50 км в посл. час ливневой дождь 9/5 900 м
[Cb cap Ac und]
+10.7 +8.7 87 +9 +11 998.3 994.4
12 17.06 В 2 10 км слаб. ливневой дождь 10/3 900 м
[Cb cap Ac trans Ci fib]
+11.9 +6.9 71 +11 +13 999.0 995.1
15 17.06 В 2 10 км слаб. ливневой дождь 9/4 960 м
[Cb cap Ac und]
+9.6 +8.6 93 +8 +8 999.7 995.8 +13.2 2
18 17.06 ЮЗ 2 50 км в посл. час ливневой дождь 9/4 930 м
[Cb cap Ac und]
+8.4 +7.8 96 +6 +6 1000.1 996.2
21 17.06 20 км {ливн. осадки} 10/1 600 м
[Cb cap Ac trans Ci fib]
+5.9 +5.4 97 999.6 995.6
00 18.06 С 2 50 км {ливн. осадки} 10/3 570 м
[Sc Ac trans Ci fib]
+5.5 +5.0 97 +3 +3 999.4 995.4
03 18.06 З 3 10 км слаб. ливневой дождь 10/1 600 м
[Cb cap Ac und]
+7.1 +5.8 91 +4 +5 999.5 995.6 +4.3 0.3
06 18.06 З 5 50 км {ливн. осадки} 9/9 930 м
[Sc]
+9.4 +3.1 65 +6 +7 999.5 995.6
09 18.06 нст 1 50 км {ливн. осадки} 9/3 870 м
[Cb cap Ac und]
+11.0 +3.8 61 +11 +15 999.3 995.4
12 18.06 С 3 50 км в посл. час ливневой дождь 9/3 930 м
[Cb cap Ac und]
+9.4 +4.2 70 +7 +9 1001.1 997.2
15 18.06 ЮЗ 2 50 км {ливн. осадки} 9/0
[Ac und]
+9.2 +5.2 76 +8 +8 1002.0 998.1 +11.0 0.8
18 18.06 З 2 50 км {ливн. осадки} 1/0
[Ac trans]
+4.3 +3.6 95 +1 +1 1002.2 998.2

 

Местоположение метеостанции Березово (Ханты-Мансийский АО, Россия): широта 63.92 долгота 65.03 высота над уровнем моря 32 м.

В архиве по умолчанию представлена погода в Березово за последнюю неделю. Архивные данные за месяц целиком и за предыдущие месяцы, начиная с января 2011 года, Вы можете получить, выбрав интересующий диапазон дат из раскрывающегося списка и нажав кнопку "Ввод!".


*Определитесь, кто Вы:
робот инопланетянин человек

Внимание! Время в таблицах - всемирное. Для получения местного времени необходимо прибавить поправку, которая равна 5 ч.

Смотрите также архив погоды в соседних городах и на ближайших метеорологических станциях:

Погода в Игриме (Ханты-Мансийский АО, Россия) (85 км)
Погода в Казым-Мысе (Ханты-Мансийский АО, Россия) (110 км)
Погода в Казыме (Ханты-Мансийский АО, Россия) (110 км)
Погода в Сосьве (Ханты-Мансийский АО, Россия) (147 км)
Погода в Мужах (Ямало-Ненецкий АО, Россия) (163 км)
Погода в Октябрьском (Ханты-Мансийский АО, Россия) (171 км)
Погода в Саранпауле (Ханты-Мансийский АО, Россия) (206 км)
Погода в Питляре (Ямало-Ненецкий АО, Россия) (217 км)
Погода в Вонъегане (Ханты-Мансийский АО, Россия) (219 км)
Погода в Юильске (Ханты-Мансийский АО, Россия) (226 км)

Пояснения к столбцам:

Ветер - указаны скорость ветра в м/с - средняя за 10 мин, порывы в срок и между сроками (в фигурных скобках) и направление, откуда дует ветер: С - северный, СВ - северо-восточный, В - восточный, ЮВ - юго-восточный, Ю - южный, ЮЗ - юго-западный, З - западный, СЗ - северо-западный.
Видимость - горизонтальная дальность видимости в метрах или километрах. При видимости от 1 до 10 км при отсутствии осадков обычно наблюдается дымка, при ухудшении видимости до 1 км и менее - туман. В сухую погоду видимость может ухудшаться дымом, пылью или мглою.
Явления - указаны атмосферные явления, наблюдавшиеся в срок или в последний час перед сроком; фигурными скобками обозначены явления, наблюдавшиеся между сроками (за 1-3 часа до срока); квадратными скобками обозначены град или гололедные отложения с указанием их диаметра в мм.
Облачность - указаны через наклонную черту общая и нижняя облачность в баллах и высота нижней границы облаков в метрах; квадратными скобками обозначены формы облаков: Ci - перистые, Cs - перисто-слоистые, Cc - перисто-кучевые, Ac - высококучевые, As - высокослоистые, Sc - слоисто-кучевые, Ns - слоисто-дождевые, Cu - кучевые, Cb - кучево-дождевые. Подробнее классификацию облаков см. в Атласе облаков (PDF).
T - Температура воздуха - температура, измеренная на высоте 2 м над землей.
Td - Температура точки росы - температура, при понижении до которой содержащийся в воздухе водяной пар достигнет насыщения.
f - Относительная влажность воздуха - влажноcть воздуха, измеренная на высоте 2 м над землей.
Te - Эффективная температура - температура, которую ощущает одетый по сезону человек в тени. Характеристика душности погоды. При расчете учитывается влияние влажности воздуха и скорости ветра на теплоощущения человека.
Tes - Эффективная температура на солнце - температура, которую ощущает человек, с поправкой на солнечный нагрев. Характеристика знойности погоды. Зависит от высоты солнца над горизонтом, облачности и скорости ветра. Ночью, в пасмурную погоду, а также при ветре 12 м/с и более поправка равна нулю.
P - Атмосферное давление - приведенное к уровню моря атмосферное давление.
Po - Атмосферное давление - измеренное на уровне метеостанции атмосферное давление.
Tmin - Минимальная температура - минимум температуры воздуха на высоте 2 м над землей.
Tmax - Максимальная температура - максимум температуры воздуха на высоте 2 м над землей.
R - Количество осадков - Количество выпавших осадков за период времени, мм. При наведении курсора мыши на число - период времени, за который выпало указанное количество осадков.
R24 - Количество осадков - Количество выпавших осадков за 24 часа, мм.
S - Снежный покров - Высота снежного покрова, см. При наведении курсора мыши на число - состояние снежного покрова и степень покрытия местности в баллах.